Regional Weather Roundup
Issued by NWS

Home | Current Version | Previous Version | Text Only | Print | Product List | Glossary On
Versions: 1 2 3 4 5 6 7 8 9 10 11 12 13 14 15 16 17 18 19 20 21 22 23 24 25 26 27 28 29 30 31 32 33 34 35 36 37 38 39 40 41 42 43 44 45 46 47 48 49 50
000
ASUS43 KTOP 232159
RWRKS

WEATHER ROUNDUP FOR KANSAS
NATIONAL WEATHER SERVICE GOODLAND KS
500 PM CDT WED APR 23 2014

NOTE:  "FAIR" INDICATES FEW OR NO CLOUDS BELOW 12,000 FEET WITH NO
SIGNIFICANT WEATHER AND/OR OBSTRUCTIONS TO VISIBILITY.

KSZ001>006-013>018-027>032-041>047-232300-
NORTHWEST KANSAS

CITY           SKY/WX    TMP DP  RH WIND       PRES   REMARKS
GOODLAND       MOSUNNY   79  41  25 NE23G31   29.51F
HAYS           CLOUDY   N/A N/A N/A S33G49    29.54F
HILL CITY      CLOUDY    85  50  29 S22G36    29.50F
RUSSELL        CLOUDY    84  49  29 S38G46    29.53F
$$

KSZ061>065-074>080-084>089-232300-
SOUTHWEST KANSAS

CITY           SKY/WX    TMP DP  RH WIND       PRES   REMARKS
DODGE CITY     CLOUDY    80  50  34 S26G35    29.56F
ELKHART          N/A    N/A N/A N/A MISG        N/A
GARDEN CITY    CLOUDY    85  50  29 S26G43    29.51F
GREAT BEND     CLOUDY    81  52  36 S31G41    29.55F
LIBERAL        PTSUNNY   75  55  50 S18G28    29.55S THUNDER
$$

KSZ066>073-081>083-090>101-232300-
SOUTHEAST KANSAS

CITY           SKY/WX    TMP DP  RH WIND       PRES   REMARKS
CHANUTE        SUNNY     82  48  30 S21G29    29.76F
COFFEYVILLE    SUNNY     82  52  35 S16       29.77F
HUTCHINSON     CLOUDY    82  47  29 S15       29.63F
MEDICINE LODGE   N/A     84  53  34 S23G31    29.60F
NEWTON         CLOUDY    82  45  26 S26G33    29.71F
PARSONS        SUNNY     83  48  29 S12G23    29.77F
WICHITA INTL   PTSUNNY   84  45  25 S21G33    29.67F
WICHITA JABRA  PTSUNNY   84  45  25 S23G33    29.67F
$$

KSZ007>012-019>026-033>040-048>060-102>105-232300-
NORTHEAST KANSAS

CITY           SKY/WX    TMP DP  RH WIND       PRES   REMARKS
CONCORDIA      PTSUNNY   80  47  31 S22G33    29.57F THUNDER
EMPORIA        MOSUNNY   82  47  29 S24G32    29.69F
LAWRENCE       PTSUNNY   78  46  32 SE20G29   29.75F
MANHATTAN      CLOUDY    85  45  24 S28G46    29.63F
OLATHE IND     PTSUNNY   75  45  34 SE22G28   29.79F
OLATHE EXE     PTSUNNY   73  45  36 SE18G28   29.79F
SALINA         CLOUDY    83  46  27 S30G48    29.55F
TOPEKA BILLARD PTSUNNY   80  47  31 SE20G28   29.71F
TOPEKA FORBES  PTSUNNY   80  45  28 S21G32    29.70F
$$



USA.gov is the U.S. government's official web portal to all federal, state and local government web resources and services.